www.pogodaiklimat.ru

Погода и климат >> Архив погоды >> Боливия >> Санта-Ана


ПОГОДА в Санта-Ане

  • Прогноз погоды в Санта-Ане
  • Монитор погоды в Санта-Ане

АРХИВ ПОГОДЫ в Санта-Ане

Время (UTC), дата Ветер
(напр.,м/с)
 
Видим.   Явления Облачность Т
(С)
Тd
(С)
f
(%)
Тe
(С)
Тes
(С)
Комфортность P
(гПа)
Po
(гПа)
Тmin
(С)
Tmax
(С)
R
(мм)
R24
(мм)
S
(см)
12 12.06 С 3 15 км ясно +24.0 +22.3 90 +31 +33 очень
душно
1012.8 996.3 +21.8
15 12.06 С 3 15 км ясно +30.0 +22.4 64 +39 +49 очень
душно
1013.8 997.3
18 12.06 С 3 15 км 3/3 600 м
[Cu hum]
+32.2 +20.0 49 +39 +45 очень
душно
1011.8 995.5
21 12.06 СЗ 3 15 км 3/3 600 м
[Cu hum]
+31.6 +19.6 49 +37 +38 очень
душно
1010.9 994.5 +32.6
12 13.06 С 2 15 км 6/0
[Ci fib]
+24.0 +22.9 94 +32 +33 очень
душно
1013.1 996.5 +22.0
15 13.06 С 3 15 км 9/5 500 м
[Cu med, cong Ci fib]
+30.0 +23.4 68 +41 +45 опасность
перегрева
1014.4 998.0
18 13.06 СЗ 4 15 км 6/6 600 м
[Cu med, cong]
+32.3 +21.7 54 +41 +44 опасность
перегрева
1011.6 995.3
21 13.06 С 2 15 км 5/5 600 м
[Cu med, cong]
+32.2 +21.8 54 +41 +41 опасность
перегрева
1010.3 994.0 +33.5
12 14.06 СЗ 2 15 км 4/0 2000 м
[Ac trans]
+24.7 +23.2 91 +33 +34 очень
душно
1013.2 996.7 +22.2
15 14.06 С 3 15 км 5/3 600 м
[Cu hum Ci fib]
+30.0 +23.6 69 +41 +48 опасность
перегрева
1013.7 997.3
18 14.06 С 3 15 км 5/5 600 м
[Cu med, cong]
+32.2 +21.6 54 +41 +45 опасность
перегрева
1011.8 995.4
21 14.06 СЗ 3 15 км 4/4 600 м
[Cu med, cong]
+31.6 +22.5 59 +41 +42 опасность
перегрева
1010.9 994.5 +32.8
12 15.06 СЗ 3 15 км 6/0 2000 м
[Ac trans Ci fib]
+24.7 +22.7 89 +33 +34 очень
душно
1012.5 996.0 +22.4
15 15.06 С 3 15 км 6/3 600 м
[Cu med, cong Ci fib]
+30.7 +22.9 63 +41 +47 опасность
перегрева
1013.1 996.7
18 15.06 С 4 15 км 6/6 600 м
[Cu med, cong Ac trans]
+32.2 +22.6 57 +42 +45 опасность
перегрева
1011.0 994.7
21 15.06 С 2 7000 м гроза без осадков туман 8/5 600 м
[Cb cap Ac trans]
+31.3 +22.3 59 +40 +41 очень
душно
1010.3 994.0 +33.0
12 16.06 штиль 0 15 км 6/0 2000 м
[Ac trans]
+24.3 +22.9 92 +32 +34 очень
душно
1014.1 997.5 +22.7
15 16.06 С 2 15 км 5/1 600 м
[Cu hum Ac trans]
+29.4 +23.6 71 +40 +48 очень
душно
1015.5 999.0
18 16.06 СВ 3 15 км 5/5 600 м
[Cu med, cong Ac trans]
+32.6 +22.3 55 +42 +47 опасность
перегрева
1013.1 996.7
21 16.06 штиль 0 7000 м осадки на расстоянии 9/5 600 м
[Cb cap Ci ing]
+30.3 +23.0 65 +40 +41 очень
душно
1011.3 995.0 +33.4
12 17.06 Ю 3 15 км 6/3 180 м
[St Ac trans]
+22.8 +21.9 95 +31 +31 очень
душно
1017.1 1000.5 +21.6 1
15 17.06 Ю 3 15 км 3/0 2000 м
[Ac trans]
+27.6 +22.6 74 +36 +45 очень
душно
1018.1 1001.5
18 17.06 ЮВ 3 15 км 5/5 600 м
[Cu med, cong]
+30.3 +22.1 62 +39 +44 очень
душно
1015.1 998.5
21 17.06 штиль 0 15 км 6/4 600 м
[Cu med, cong Ci fib]
+31.0 +21.7 58 +39 +40 очень
душно
1013.0 996.5 +32.6
12 18.06 штиль 0 15 км 8/0
[Ci]
+22.7 +21.7 94 +30 +32 очень
душно
1013.9 997.3 +21.3
15 18.06 штиль 0 15 км 8/1 600 м
[Cu hum Ci]
+28.8 +23.6 74 +39 +52 опасность
солнечного
удара
1014.4 998.0
18 18.06 С 3 15 км 9/6 600 м
[Cu med, cong Ci]
+30.8 +22.5 61 +40 +43 очень
душно
1011.4 995.0
21 18.06 С 3 15 км 9/3 600 м
[Cu med, cong Ci]
+31.0 +22.7 61 +41 +41 опасность
перегрева
1010.9 994.5 +32.2

 

Местоположение метеостанции Санта-Ана (Боливия): широта -13.76 долгота -65.43 высота над уровнем моря 144 м.

В архиве по умолчанию представлена погода в Санта-Ане за последнюю неделю. Архивные данные за месяц целиком и за предыдущие месяцы, начиная с января 2011 года, Вы можете получить, выбрав интересующий диапазон дат из раскрывающегося списка и нажав кнопку "Ввод!".


*Определитесь, кто Вы:
робот инопланетянин человек

Внимание! Время в таблицах - всемирное. Для получения местного времени необходимо прибавить поправку, которая равна -4 ч.

Смотрите также архив погоды в соседних городах и на ближайших метеорологических станциях:

Погода в Бауресе (Боливия) (1 км)
Погода в Сан-Рамоне (Боливия) (94 км)
Погода в Сан-Хоакине (Боливия) (103 км)
Погода в Сан Игнасио де Moксосе (Боливия) (129 км)
Погода в Тринидаде (Боливия) (130 км)
Погода в Магдалене (Боливия) (151 км)
Погода в Санта-Розе (Боливия) (165 км)
Погода в Сан-Борхе (Боливия) (197 км)
Погода в Рейесе (Боливия) (219 км)
Погода в Рурренабаке (Боливия) (243 км)

Пояснения к столбцам:

Ветер - указаны скорость ветра в м/с - средняя за 10 мин, порывы в срок и между сроками (в фигурных скобках) и направление, откуда дует ветер: С - северный, СВ - северо-восточный, В - восточный, ЮВ - юго-восточный, Ю - южный, ЮЗ - юго-западный, З - западный, СЗ - северо-западный.
Видимость - горизонтальная дальность видимости в метрах или километрах. При видимости от 1 до 10 км при отсутствии осадков обычно наблюдается дымка, при ухудшении видимости до 1 км и менее - туман. В сухую погоду видимость может ухудшаться дымом, пылью или мглою.
Явления - указаны атмосферные явления, наблюдавшиеся в срок или в последний час перед сроком; фигурными скобками обозначены явления, наблюдавшиеся между сроками (за 1-3 часа до срока); квадратными скобками обозначены град или гололедные отложения с указанием их диаметра в мм.
Облачность - указаны через наклонную черту общая и нижняя облачность в баллах и высота нижней границы облаков в метрах; квадратными скобками обозначены формы облаков: Ci - перистые, Cs - перисто-слоистые, Cc - перисто-кучевые, Ac - высококучевые, As - высокослоистые, Sc - слоисто-кучевые, Ns - слоисто-дождевые, Cu - кучевые, Cb - кучево-дождевые. Подробнее классификацию облаков см. в Атласе облаков (PDF).
T - Температура воздуха - температура, измеренная на высоте 2 м над землей.
Td - Температура точки росы - температура, при понижении до которой содержащийся в воздухе водяной пар достигнет насыщения.
f - Относительная влажность воздуха - влажноcть воздуха, измеренная на высоте 2 м над землей.
Te - Эффективная температура - температура, которую ощущает одетый по сезону человек в тени. Характеристика душности погоды. При расчете учитывается влияние влажности воздуха и скорости ветра на теплоощущения человека.
Tes - Эффективная температура на солнце - температура, которую ощущает человек, с поправкой на солнечный нагрев. Характеристика знойности погоды. Зависит от высоты солнца над горизонтом, облачности и скорости ветра. Ночью, в пасмурную погоду, а также при ветре 12 м/с и более поправка равна нулю.
P - Атмосферное давление - приведенное к уровню моря атмосферное давление.
Po - Атмосферное давление - измеренное на уровне метеостанции атмосферное давление.
Tmin - Минимальная температура - минимум температуры воздуха на высоте 2 м над землей.
Tmax - Максимальная температура - максимум температуры воздуха на высоте 2 м над землей.
R - Количество осадков - Количество выпавших осадков за период времени, мм. При наведении курсора мыши на число - период времени, за который выпало указанное количество осадков.
R24 - Количество осадков - Количество выпавших осадков за 24 часа, мм.
S - Снежный покров - Высота снежного покрова, см. При наведении курсора мыши на число - состояние снежного покрова и степень покрытия местности в баллах.